Regional Weather Roundup
Issued by NWS

Home | Current Version | Previous Version | Graphics & Text | Print | Product List | Glossary On
Versions: 1 2 3 4 5 6 7 8 9 10 11 12 13 14 15 16 17 18 19 20 21 22 23 24 25 26 27
000
ASUS45 KSLC 191310
RWRUT

UTAH REGIONAL WEATHER ROUNDUP
NATIONAL WEATHER SERVICE SALT LAKE CITY UT
600 AM MST THU JAN 19 2017

UTZ001>011-023>025-191400-

NORTHERN UTAH

CITY           SKY/WX    TMP DP  RH WIND       PRES   REMARKS
BRIGHAM CITY     N/A     24  19  81 W5        29.80F WCI  18
HILL AFB       CLOUDY    24  19  81 CALM      29.76F
LOGAN          CLOUDY    18  13  80 CALM      29.78S HAZE
OGDEN          CLOUDY    23  20  88 CALM      29.77F FOG
SALT LAKE CITY LGT SNOW  26  22  84 N7        29.78F FOG     WCI  18
TOOELE VALLEY  LGT SNOW  27  27 100 N5        29.79S WCI  21
WENDOVER       CLOUDY    21  19  93 CALM      29.79F
HEBER CITY     CLOUDY    34  19  55 CALM      29.74S
WEST JORDAN    CLOUDY    34  33  96 S16       29.77F WCI  24

$$

UTZ011>015-024>027-191400-

CENTRAL/NORTHEAST UTAH

CITY           SKY/WX    TMP DP  RH WIND       PRES   REMARKS
PROVO AIRPORT  LGT RAIN  34  26  72 SE5       29.81S WCI  30
MOAB/CANYONLAN MOCLDY    29  26  89 CALM      29.84F
DELTA          CLOUDY    32  32 100 S13       29.79S WCI  22
PRICE          CLOUDY    21  17  84 CALM      29.82F
RICHFIELD      CLOUDY    32  27  80 NW3       29.81F
ROOSEVELT      LGT SNOW   5   1  85 CALM      29.96F
VERNAL         CLOUDY    10   7  87 NE5       29.92F WCI   2

$$

UTZ013>016-019>022-027-191400-

SOUTHERN UTAH

CITY           SKY/WX    TMP DP  RH WIND       PRES   REMARKS
BRYCE CANYON   LGT SNOW  24  19  81 N3        29.84F
CEDAR CITY     CLOUDY    32  28  85 S5        29.81F WCI  27
MILFORD        LGT SNOW  33  31  92 S21       29.81F FOG     WCI  21
ST GEORGE      CLOUDY    43  34  70 NE7       29.92F
HANKSVILLE     CLOUDY    27  25  93 MISG      29.88F
KANAB          CLOUDY    34  34 100 CALM      29.94F
BLANDING       PTCLDY    26  24  96 NE7       29.96F WCI  18

$$

REGIONAL REPORTS     COLORADO/ARIZONA

CITY           SKY/WX    TMP DP  RH WIND       PRES   REMARKS
CRAIG, CO      CLOUDY     2  -3  80 W3        29.84F
GRAND JUNCTION CLOUDY    30  25  81 E16       29.87F WCI  19
RIFLE, CO      CLOUDY    20  17  88 CALM      29.89F
MONTROSE, CO   CLOUDY    25  19  78 SE6       29.91F WCI  18
CORTEZ, CO     CLOUDY    20  18  92 NE3       29.91F
COLORADO CITY  LGT SNOW  34  34 100 CALM      29.92F
PAGE, AZ       CLOUDY    37  28  70 CALM      29.86F
GRAND CANYON   LGT SNOW  31  31 100 S13       29.91F FOG     WCI  21
KINGMAN, AZ    CLOUDY    45  29  53 VRB3      29.91F
FLAGSTAFF, AZ  CLOUDY    30  27  88 SW17      29.93F WCI  18

$$

REGIONAL REPORTS    NEVADA/IDAHO/WYOMING

CITY           SKY/WX    TMP DP  RH WIND       PRES   REMARKS
LAS VEGAS, NV  CLOUDY    52  37  56 S6        29.82F
ELY, NY        CLOUDY    29  26  89 SW13      29.77S WCI  19
ELKO, NV       FLURRIES  34  28  79 S16G22    29.71S WCI  24
POCATELLO, ID  FLURRIES  30  27  88 VRB5      29.71F WCI  25
BURLEY, ID     LGT SNOW  34  30  85 S23G31    29.66R FOG     WCI  22
FORT BRIDGER,  CLOUDY     8   2  78 CALM      29.76F
EVANSTON, WY   CLOUDY    27  12  53 SW6       29.71F WCI  20
ROCK SPRINGS,  CLOUDY     5   1  83 NE6       29.75F WCI  -6

$$




USA.gov is the U.S. government's official web portal to all federal, state and local government web resources and services.